Location: Kon?yap?lem
(16.7419°N, 80.2034°E)
Time: 13:27:10
(UTC+00:00)

Daily predictions for brighter satellites

Satellite Brightness Start Highest point End
(mag) Time Altitude Azimuth Time Altitude Azimuth Time Altitude Azimuth
COSMOS 2455 4.4 12:16:57 10° SW 12:22:23 36° WNW 12:27:52 10° N
COSMO-SKYMED 1 2.6 12:20:06 10° NNE 12:24:24 64° E 12:28:41 10° S
CZ-4C R/B 3.9 12:26:21 10° NE 12:29:15 28° E 12:32:14 10° SSE
Okean O Rocket 3.1 12:26:47 10° ESE 12:29:39 17° ENE 12:32:30 10° NNE
Sakura Rocket 3.8 12:23:53 10° WNW 12:30:09 52° NNE 12:34:43 10° E
NOSS 3-1 (C) 4.4 12:22:18 10° NNW 12:30:42 62° ENE 12:39:43 10° SE
ARGOS 4.3 12:26:57 10° ESE 12:31:01 22° ENE 12:35:05 10° NNE
Cosmos 990 Rocket 3.9 12:27:18 10° N 12:32:24 65° ENE 12:37:29 10° SSE
Meteor 2-6 Rocket 4.5 12:29:00 10° S 12:34:43 54° E 12:40:19 10° NNE
Cosmos 1633 Rocket 4.5 12:33:03 10° NE 12:35:58 17° E 12:38:54 10° SE
Cosmos 1151 Rocket 3.0 12:33:00 10° S 12:37:16 85° E 12:41:35 10° N
PAYLOAD B 4.3 12:33:24 10° SSE 12:38:51 55° ENE 12:44:18 10° N
SWIFT 2.7 12:38:27 10° WNW 12:42:34 51° N 12:46:09 13° ENE
CZ-4B R/B 3.5 12:41:38 10° SE 12:46:48 42° ENE 12:51:51 10° N
Atlas Centaur 2 1.6 12:43:27 10° WNW 12:46:57 57° SSW 12:50:33 10° SE
Cosmos 1809 Rocket 4.5 12:42:20 10° N 12:48:24 90° E 12:54:28 10° S
Cosmos 1328 Rocket 3.5 12:46:31 10° S 12:50:56 83° E 12:55:21 10° N
Meteor 1-10 Rocket 4.4 12:46:14 10° S 12:51:57 55° E 12:57:35 10° NNE
Cosmos 1602 4.3 12:49:04 10° NNW 12:52:53 61° W 12:56:42 10° S
X-37B 2.5 12:52:00 10° W 12:54:13 20° NW 12:56:27 10° N
Meteor 2-21 Rocket 4.5 12:48:41 10° N 12:54:37 56° E 13:00:30 10° SSE
MOS 1-B 4.3 12:50:03 10° SSE 12:55:47 76° ENE 13:01:33 10° N
CZ-2D R/B 3.6 12:53:41 10° S 12:57:31 69° W 13:01:20 10° NNW
Cosmos 1666 Rocket 3.7 12:56:26 10° N 13:00:41 48° E 13:04:54 10° SSE
DMSP B5D2-2 4.2 12:56:24 10° NNE 13:01:30 55° E 13:06:36 10° S
Tiangong 1.0 12:59:16 10° SW 13:02:23 69° SE 13:03:47 29° ENE
CZ-4C R/B 4.4 13:00:05 10° NNE 13:04:04 16° NE 13:04:04 16° NE
Cosmos 2360 4.2 13:01:11 10° N 13:06:50 64° ENE 13:12:28 10° SSE
CZ-2C R/B 4.0 13:03:05 10° N 13:07:50 38° WNW 13:12:35 10° SW
GPS 2-15 Rocket1 3.2 13:04:42 10° W 13:09:17 58° N 13:11:34 28° ENE
Aurora 2 Rocket 3.8 13:06:23 10° WNW 13:11:38 46° NNE 13:15:43 24° ENE
BREEZE-M DEB (TANK) 4.3 13:13:00 10° SSE 13:13:38 14° SE 13:13:38 14° SE
CZ-2C R/B 3.5 13:16:24 10° WNW 13:18:46 15° NNW 13:20:28 12° N
Cosmos 836 Rocket 4.4 13:15:06 10° S 13:20:23 79° ESE 13:24:36 16° NNE
Cosmos 1867 3.5 13:16:35 10° SSW 13:21:59 85° ESE 13:25:34 22° NNE
H-2A R/B 3.1 13:19:10 10° S 13:24:16 47° W 13:29:15 10° NNW
BREEZE M DEB (TANK) 4.2 13:15:49 10° NNW 13:24:17 27° NNE 13:24:59 27° NE
deb Chang Zheng 4 4.1 13:24:50 10° S 13:29:03 60° W 13:33:17 10° NNW
Cosmos 1515 Rocket 4.1 13:27:17 10° SSW 13:31:40 58° W 13:36:02 10° N
Meteosat 1 Rocket2 2.4 13:28:11 10° WSW 13:32:06 81° SSE 13:32:23 72° E
H-2A R/B 2.0 13:30:03 31° NNE 13:32:10 76° ESE 13:36:37 10° S
BREEZE-M DEB (TANK) 2.7 13:31:47 10° WSW 13:35:48 44° NW 13:36:13 41° NNW
USA 32 3.9 13:31:50 10° S 13:37:03 89° WSW 13:41:31 14° N
Aureole 3 Rocket 2.9 13:41:54 10° SSW 13:44:47 61° WSW 13:44:47 61° WSW
Cosmos 2266 Rocket 3.9 13:39:57 10° N 13:46:19 69° E 13:52:41 10° SSE
Cosmos 2084 4.3 13:43:42 10° NW 13:48:07 54° WSW 13:52:39 10° SSE
Genesis I 4.0 13:44:23 10° SSW 13:46:56 40° S 13:46:56 40° S
Cosmos 1697 Rocket 4.0 13:44:14 10° NW 13:49:24 39° WSW 13:54:35 10° S
Spot 2 4.3 13:45:46 10° SSE 13:50:43 79° ENE 13:53:20 29° N
Cosmos 2369 4.0 13:46:52 10° NNW 13:52:31 65° WSW 13:58:07 10° S
Cosmos 773 Rocket 4.5 13:48:03 10° S 13:52:05 45° SE 13:52:05 45° SE
Cosmos 1980 Rocket 2.1 13:47:46 10° NNW 13:53:24 87° WSW 13:58:59 10° SSE
USA 234 3.1 13:48:08 14° SE 13:53:51 78° NE 14:00:23 10° NNW
Centaur AC-69 4.3 13:51:49 10° W 13:53:13 25° WSW 13:53:13 25° WSW
USA 229 DEB 4.3 13:49:09 10° NNW 13:56:50 66° WSW 14:04:41 10° SSE
YAOGAN 1 2.9 13:52:33 10° S 13:56:01 56° S 13:56:01 56° S
USA 229 4.3 13:49:15 10° NNW 13:56:56 67° WSW 14:04:46 10° SSE
NOSS 3-3 (A) 4.3 13:54:14 10° SW 13:59:24 50° WNW 14:01:25 34° N
NOSS 3-3 (C) 4.3 13:54:19 10° SW 13:59:30 51° WNW 14:01:29 35° N
Meteor 1-27 Rocket 4.5 13:54:33 10° SSW 13:59:56 50° W 14:04:10 16° NNW
Okean O Rocket 3.9 14:02:10 10° SSW 14:05:43 24° W 14:09:16 10° NW
ATLAS 5 CENTAUR R/B 2.2 14:11:06 10° W 14:16:55 45° W 14:16:55 45° W
CZ-4 R/B 4.0 14:31:36 10° SSW 14:33:28 19° SW 14:33:28 19° SW
CZ-4C R/B 4.2 14:45:30 10° NNW 14:49:26 33° NNW 14:49:26 33° NNW
H-2A R/B 4.1 14:24:48 10° WNW 15:12:02 81° SW 15:12:18 80° SSW
Cosmos 2369 Rocket 4.2 22:03:33 10° SSE 22:11:08 20° ENE 22:13:11 10° NE
BREEZE-M DEB (TANK) 4.1 22:16:51 76° ESE 22:16:51 76° ESE 22:33:22 10° SE
NATO 3D Rocket 4.3 22:41:02 48° NE 22:41:02 48° NE 22:46:23 10° ENE
Hubble Space Telescope 3.4 22:46:53 14° NE 22:46:53 14° NE 22:47:50 10° ENE
SL-08 R/B 4.4 22:44:45 10° S 22:47:48 39° S 22:47:48 39° S
Cosmos 1072 Rocket 4.3 22:50:31 71° N 22:51:14 90° W 22:57:21 10° S
Tsikada Rocket 3.9 22:50:42 10° S 22:56:50 86° E 23:03:03 10° N
Cosmos 2082 Rocket 2.3 22:56:46 50° N 22:58:11 70° ENE 23:03:44 10° SSE
Envisat 4.0 23:01:38 10° NNE 23:06:28 45° E 23:11:17 10° S
YAOGAN 6 3.8 23:05:55 14° NNE 23:08:46 42° E 23:12:10 10° S
OAO 2 Rocket 4.3 23:09:33 19° SSW 23:12:56 46° SE 23:17:51 10° ENE
Chandra Rocket (1) 3.2 23:13:57 24° NE 23:13:57 24° NE 23:15:33 10° ENE
Delta 2 Rocket 3.6 23:14:23 51° S 23:14:23 51° S 23:18:02 10° SE
COSMOS 2406 3.8 23:17:13 36° WSW 23:17:13 36° WSW 23:21:40 10° S
DELTA 4 R/B 3.7 23:17:22 12° SE 23:17:29 12° SE 23:18:39 10° ESE
Meteor 2-3 Rocket 3.8 23:13:17 10° SSW 23:18:40 49° W 23:19:47 43° NW
Cosmos 1833 Rocket 4.2 23:23:41 19° SW 23:23:41 19° SW 23:26:06 10° SSW
COSMOS 2455 3.6 23:22:22 32° WSW 23:22:22 32° WSW 23:27:26 10° S
ATLAS 5 CENTAUR R/B 2.7 23:19:54 10° S 23:23:24 35° ESE 23:26:49 10° NE
Cosmos 1933 3.4 23:27:30 18° N 23:30:22 75° E 23:34:22 10° S
CZ-3 R/B 3.1 23:02:22 10° WSW 23:30:57 77° SSE 23:37:56 10° ENE
Cosmos 1570 Rocket 4.4 23:28:04 10° N 23:33:16 64° ENE 23:38:29 10° SSE
Cosmos 540 Rocket 4.0 23:34:32 34° W 23:35:09 35° W 23:39:48 10° SSW
Cosmos 2263 4.5 23:34:50 10° SW 23:40:07 41° WNW 23:45:28 10° N
Cosmos 1814 Rocket 3.9 23:35:41 13° NNW 23:40:15 87° WSW 23:45:24 10° SSE
FUSE 3.9 23:38:21 23° WSW 23:41:47 89° SSE 23:47:11 10° ENE
Meteor 2-13 Rocket 4.5 23:36:37 10° SSW 23:42:34 54° W 23:48:31 10° N
SJ 16-02 3.4 23:40:21 10° SSE 23:44:11 30° E 23:47:59 10° NE
Ariane H10+ 4.2 23:46:58 10° SW 23:48:50 18° S 23:51:14 10° SE
Meteor 1-26 Rocket 4.2 23:45:50 10° N 23:51:37 88° W 23:57:13 10° S
Cosmos 2369 Rocket 3.4 23:53:21 19° NW 23:53:21 19° NW 23:56:15 10° NNW
ARIANE 5 R/B 3.2 23:52:26 10° WSW 23:55:04 19° S 23:57:14 10° SE
